Other Public Products
Issued by NWS Grand Forks, ND

Home | Current Version | Previous Version | Graphics & Text | Print | Product List | Glossary On
Versions: 1 2 3 4 5 6 7 8 9 10 11 12 13 14 15 16 17 18 19 20 21 22 23 24 25 26 27 28 29 30 31 32 33 34 35 36 37 38 39 40 41 42 43 44 45 46 47 48 49 50
000
FPUS83 KFGF 281110
OPUFGF
PRAIRIE TO PINES WEATHER ROUNDUP
NATIONAL WEATHER SERVICE EASTERN NORTH DAKOTA/GRAND FORKS ND
600 AM CDT FRI APR 28 2017

 **SATELLITE DATA USED TO AUGMENT SKY COVER AT AUTOMATED STATIONS**
 *****  WEATHER ACROSS EASTERN NORTH DAKOTA  *****

CITY           SKY/WX    TMP DP  RH WIND       PRES   REMARKS
GRAND FORKS    FAIR      31  28  89 NW7       29.91R WCI  24
GRAND FORKS AF FAIR      29  25  86 NW7       29.92R WCI  22
GRAND CITY NWS NOT AVBL
BUXTON         NOT AVBL
DEVILS LAKE    FAIR      26  22  84 NW7       29.94R WCI  18
FARGO          FAIR      25  23  92 W7        29.90R WCI  17
WAHPETON ARPT  FAIR      28  25  86 NW5       29.91R WCI  23
$$

 *****  WEATHER ACROSS CENTRAL AND WESTERN NORTH DAKOTA  *****

CITY           SKY/WX    TMP DP  RH WIND       PRES   REMARKS
JAMESTOWN      FAIR      26  24  92 NW6       29.91R WCI  19
BISMARCK       FAIR      22  22 100 CALM      29.94R
MINOT          FAIR      25  22  88 CALM      29.95R
MINOT AFB      FAIR      20  17  90 NW6       29.95R WCI  12
GARRISON         N/A     21  18  88 N6        29.94R WCI  13
WILLISTON      FAIR      27  22  81 NE3       29.95R
DICKINSON      FAIR      24  18  77 E8        29.89R WCI  15
HETTINGER      FAIR      27  22  81 NE10      29.89R WCI  17
$$

 *****  OTHER OBSERVATIONS NORTHEAST NORTH DAKOTA  *****

CITY           SKY/WX    TMP DP  RH WIND       PRES   REMARKS
WALHALLA       NOT AVBL
LANGDON        FAIR      23  19  86 NW8       29.91R WCI  14
CAVALIER       FAIR      28  23  80 NW7       29.91R WCI  21
GRAFTON        FAIR      32  28  86 W8        29.93R WCI  25
CANDO          NOT AVBL
FORT TOTTEN      N/A     31  25  77 N3        29.95S
ROLLA          FAIR      25  18  74 NW9       29.94R WCI  15
RUGBY          NOT AVBL
 ***** THE ABOVE OBSERVATIONS ARE NON NWS ARE NOT QUALITY
        CONTROLLED AND MAY MIS-REPORT RAIN FOR SNOW...
$$

 *****  OTHER OBSERVATIONS SOUTHEAST NORTH DAKOTA *****

CITY           SKY/WX    TMP DP  RH WIND       PRES   REMARKS
COOPERSTOWN    FAIR      28  27  93 NW8       29.92R WCI  20
VALLEY CITY    FAIR      28  28 100 NW10      29.92R WCI  19
OAKES          NOT AVBL
GWINNER        SUNNY     30  28  93 MISG      29.90S
SHEYENNE NWR     N/A     27  24  90 N2        29.95S
BUFFALO        NOT AVBL
WYNDMERE         N/A     28  27  93 NW3         N/A
 ***** THE ABOVE OBSERVATIONS ARE NON NWS ARE NOT QUALITY
       CONTROLLED AND MAY MIS-REPORT RAIN FOR SNOW...
$$

  *****  WEATHER ACROSS NORTHERN MINNESOTA  *****

CITY           SKY/WX    TMP DP  RH WIND       PRES   REMARKS
FLAG ISLAND    FAIR      30  25  80 NW15      29.79R WCI  19
WARROAD        FAIR      28  25  86 W7        29.83R WCI  21
ROSEAU         MOCLDY    28  25  86 W8        29.85R WCI  20
HALLOCK        FAIR      28  27  93 W7        29.89S WCI  21
THF RVR FALLS  FAIR      27  24  89 NW7       29.88R WCI  19
HALSTAD          N/A     27  23  86 NW6         N/A  WCI  20
FOSSTON        MOCLDY    28  25  86 NW7       29.86S WCI  21
BAUDETTE       CLOUDY    30  25  81 NW15      29.78R WCI  19
WASKISH        FAIR      28  27  93 W14       29.81R WCI  17
CROOKSTON      FAIR      30  28  93 NW6       29.91R WCI  24
$$
  *****  WEATHER ACROSS CENTRAL AND WEST MINNESOTA  *****

CITY           SKY/WX    TMP DP  RH WIND       PRES   REMARKS
BEMIDJI        FAIR      26  23  90 W9        29.83R WCI  16
PARK RAPIDS    CLOUDY    30  23  75 NW10      29.84R WCI  21
WADENA         CLOUDY    28  25  86 NW8       29.85S WCI  20
DETROIT LAKES  FAIR      30  28  93 NW9       29.87F WCI  22
MOORHEAD       FAIR      28  27  93 W5        29.90S WCI  23
FERGUS FALLS   FAIR      27  27 100 N8        29.89S WCI  18
ELBOW LAKE     FAIR      30  28  92 NW9       29.88S WCI  21
MORRIS MN      FAIR      28  27  93 NW10      29.87R WCI  19
STAPLES        FAIR      25  21  86 NW8       29.85S WCI  16
WHEATON        FAIR      28  25  86 NW7       29.92R WCI  21
$$
  *****  WEATHER ELSEWHERE ACROSS MINNESOTA  *****

CITY           SKY/WX    TMP DP  RH WIND       PRES   REMARKS
DULUTH         CLOUDY    29  23  78 W12       29.74R WCI  19
INTRNTL FALLS  LGT SNOW  28  24  85 W9        29.74R FOG     WCI  19
ELY            CLOUDY    27  21  80 W16G22    29.69R WCI  14
CLOQUET        CLOUDY    28  21  74 W10       29.77R WCI  19
BRAINERD       MOCLDY    29  22  75 NW12      29.84R WCI  19
HIBBING        CLOUDY    26  21  81 NW14G21   29.75R WCI  14
ALEXANDRIA     FAIR      30  28  92 N9        29.86R WCI  22
SAINT CLOUD    FAIR      31  25  78 NW7       29.85R WCI  24
MINNEAPOLIS    CLOUDY    36  28  73 W6        29.85R
$$

  *****  WEATHER ACROSS SOUTH DAKOTA  *****

CITY           SKY/WX    TMP DP  RH WIND       PRES   REMARKS
SIOUX FALLS    FAIR      26  25  96 N7        29.85S WCI  18
BROOKINGS      FAIR      25  23  92 CALM      29.87R
WATERTOWN      FAIR      23  22  96 N5        29.86S WCI  17
HURON          FAIR      24  22  91 N3        29.88R
SISSETON         N/A     27  25  92 N9        29.89S WCI  18
ABERDEEN       FAIR      27  24  89 N6        29.90S WCI  20
MITCHELL       FAIR      26  24  92 N6        29.86S WCI  19
PIERRE         FAIR      27  23  85 NE3       29.85R
MOBRIDGE       FAIR      33  24  69 E14       29.86R WCI  23
RAPID CITY     FLURRIES  35  30  82 N8        29.79R
$$

  *****  SOME WEATHER IN NEARBY STATES *****

CITY           SKY/WX    TMP DP  RH WIND       PRES   REMARKS
GLASGOW MT     CLOUDY    41  17  38 E13       29.90R
GREAT FALLS MT CLOUDY    37  34  89 SW5       29.91R
CHEYENNE WY    FAIR      31  23  72 VRB3      29.62R
SCOTTSBLUFF NE LGT SNOW  34  32  92 E10       29.63R FOG
OMAHA NE       LGT RAIN  43  32  65 N8        29.79R
DES MOINES IA  CLOUDY    39  30  70 NE15      29.84F
DAVENPORT IA   FAIR      36  31  82 E5        29.90S
CHICAGO IL     MOCLDY    42  34  73 NW5       29.89R
EAU CLAIRE WI  CLOUDY    34  27  75 W8        29.84R
LA CROSSE WI   FAIR      35  26  69 W8        29.87S
$$

  *****  SOME NATIONAL WEATHER *****

CITY           SKY/WX    TMP DP  RH WIND       PRES   REMARKS
LA GUARDIA NY  FOG       56  55  97 NE8       29.92R VSB 1
RALEIGH NC     FAIR      69  67  93 CALM      30.02R
ATLANTA GA     DRZL/FOG  69  68  96 SW9       29.97R VSB 1
NEW ORLEANS LA CLOUDY    78  74  87 SE16      29.80R
OKLAHOMA CITY  MOCLDY    55  52  89 SE8       29.56R
ALBUQUERQUE NM FAIR      46  26  45 N7        29.75F
SALT LAKE CITY CLOUDY    37  33  85 S6        29.87R
LOS ANGELES CA FAIR      71  29  21 N26G36    29.69F
BOISE ID       FAIR      36  31  82 W7        30.00S
SEATTLE WA     CLOUDY    44  41  89 S3        30.26R
$$

*** WEATHER ACROSS MANITOBA...SASKATCHEWAN AND ONTARIO ***
                ***ONTARIO***

CITY           SKY/WX    TMP DP  RH WIND       PRES   REMARKS
GERALDTON      CLOUDY    23  21  93 SW14G20   29.51R WCI  11
THUNDER BAY    CLOUDY    27  23  86 W9        29.63R WCI  17
SIOUX LOOKOUT  LGT SNOW  23  19  86 NW12G21   29.61R DRFTSNOWWCI  12
TORONTO        MOCLDY    48  39  71 SW6       29.93R
BIG TROUT LK   CLOUDY    21   7  53 N12G28    29.58F WCI   9
PICKLE LAKE    LGT SNOW  18  16  93 N5        29.53  VSB 3/4 WCI  11
DRYDEN         FLURRIES  25  23  93 NW8       29.66R WCI  16
KENORA         CLOUDY    27  23  86 NW10G17   29.74R WCI  17
$$
                *** MANITOBA***

CITY           SKY/WX    TMP DP  RH WIND       PRES   REMARKS
BRANDON        PTCLDY    21  14  73 N8        29.96R WCI  12
DAUPHIN        CLEAR     23  12  63 W10       29.98R WCI  12
ISLAND LAKE    MOCLDY    25   9  50 N8        29.88R WCI  16
PILOT MOUND      N/A     21  14  73 NW7         N/A  WCI  13
THE PAS        PTCLDY    21  14  73 CALM      30.01R
THOMPSON       MOCLDY    18   9  68 CALM      30.01S
WINNIPEG       PTCLDY    23  18  80 W10       29.89R WCI  12
LYNN LAKE      CLEAR     19  10  68 NW6       30.03R WCI  11
CHURCHILL      MOCLDY    10   7  85 SW6       30.03F WCI   1
GILLAM         CLOUDY    12   9  85 NW5       30.00R WCI   4
$$
                ***SASKATCHEWAN***

CITY           SKY/WX    TMP DP  RH WIND       PRES   REMARKS
ESTEVAN        PTCLDY    28  27  93 SE6       29.96R WCI  22
KINDERSLEY     PTCLDY    25  23  93 S6        29.91R WCI  18
LLOYDMINSTER   LGT SNOW  32  32 100 NE7       29.98R
PRINCE ALBERT  MOCLDY    30  19  64 E5        29.98R
REGINA         MOCLDY    30  21  69 SE10      29.95R WCI  21
YORKTON        CLEAR     25  23  93 W3        29.99R



USA.gov is the U.S. government's official web portal to all federal, state and local government web resources and services.